BRU8744 UNNT-UMMS

Flight info

Callsign BRU8744
Flight time 4h 49m
Altitude 34000
Route K0857F340 OGAMA A308 OSNAB R362 KZ A575 UNKIS P982 BADIK N181 BAPUN N869 DURTI L29 TEGLU P26 RUHAL
Aircraft B738/M-SDE2E3FGHIRWXY/LB1

Departure

Time 2026-04-27 11:57
Airport Novosibirsk Tolmachevo Airport (UNNT)

Arrival

Time 2026-04-27 16:46
Airport Minsk National Airport (UMMS)
Time Latitude Longitude Altitude Speed Heading
2026-04-27 10:48 55.01036 82.67140 372 ft 0 kts 171°
2026-04-27 11:37 55.01036 82.67139 372 ft 0 kts 171°
2026-04-27 11:41 55.01039 82.67139 372 ft 2 kts 169°
2026-04-27 11:42 55.01056 82.67134 372 ft 2 kts 171°
2026-04-27 11:42 55.01072 82.67130 372 ft 2 kts 172°
2026-04-27 11:42 55.01088 82.67126 372 ft 2 kts 172°
2026-04-27 11:42 55.01105 82.67122 372 ft 2 kts 173°
2026-04-27 11:43 55.01121 82.67119 372 ft 2 kts 173°
2026-04-27 11:43 55.01137 82.67115 372 ft 2 kts 172°
2026-04-27 11:43 55.01145 82.67113 372 ft 0 kts 172°
2026-04-27 11:50 55.01138 82.67115 372 ft 1 kts 170°
2026-04-27 11:51 55.01118 82.67121 372 ft 5 kts 171°
2026-04-27 11:51 55.01100 82.67182 372 ft 8 kts 89°
2026-04-27 11:51 55.01111 82.67421 372 ft 12 kts 78°
2026-04-27 11:52 55.01153 82.67493 372 ft 9 kts 30°
2026-04-27 11:52 55.01210 82.67553 372 ft 10 kts 31°
2026-04-27 11:52 55.01273 82.67618 372 ft 11 kts 30°
2026-04-27 11:52 55.01333 82.67680 372 ft 9 kts 31°
2026-04-27 11:53 55.01354 82.67702 372 ft 0 kts 31°
2026-04-27 11:54 55.01357 82.67706 372 ft 2 kts 31°
2026-04-27 11:54 55.01378 82.67727 371 ft 5 kts 31°
2026-04-27 11:54 55.01422 82.67771 371 ft 9 kts 25°
2026-04-27 11:54 55.01479 82.67782 370 ft 5 kts 347°
2026-04-27 11:55 55.01492 82.67742 370 ft 4 kts 258°
2026-04-27 11:55 55.01482 82.67687 371 ft 0 kts 260°
2026-04-27 11:56 55.01479 82.67661 371 ft 12 kts 260°
2026-04-27 11:56 55.01429 82.67101 373 ft 81 kts 261°
2026-04-27 11:56 55.01307 82.65766 371 ft 140 kts 261°
2026-04-27 11:56 55.01170 82.63825 449 ft 181 kts 264°
2026-04-27 11:57 55.00987 82.61670 1395 ft 172 kts 262°
2026-04-27 11:57 55.00818 82.59654 2280 ft 169 kts 263°
2026-04-27 11:57 55.00639 82.57528 2802 ft 188 kts 263°
2026-04-27 11:57 55.00446 82.55232 3372 ft 193 kts 261°
2026-04-27 11:58 55.00353 82.52842 3729 ft 209 kts 281°
2026-04-27 11:58 55.00916 82.50407 4108 ft 224 kts 297°
2026-04-27 11:58 55.01726 82.47977 4606 ft 238 kts 299°
2026-04-27 11:58 55.02607 82.45448 5072 ft 252 kts 300°
2026-04-27 11:59 55.03523 82.42840 5870 ft 254 kts 300°
2026-04-27 11:59 55.04450 82.40190 6663 ft 257 kts 300°
2026-04-27 11:59 55.05381 82.37516 7441 ft 259 kts 300°
2026-04-27 11:59 55.06319 82.34807 8152 ft 263 kts 300°
2026-04-27 12:00 55.07263 82.32070 8972 ft 264 kts 300°
2026-04-27 12:00 55.08214 82.29304 9706 ft 268 kts 299°
2026-04-27 12:00 55.09201 82.26421 10016 ft 288 kts 299°
2026-04-27 12:00 55.10264 82.23307 10217 ft 310 kts 299°
2026-04-27 12:01 55.11398 82.19976 10525 ft 325 kts 299°
2026-04-27 12:01 55.12568 82.16544 11118 ft 331 kts 299°
2026-04-27 12:01 55.13744 82.13088 11873 ft 331 kts 298°
2026-04-27 12:01 55.14924 82.09613 12594 ft 334 kts 298°
2026-04-27 12:02 55.16113 82.06106 13295 ft 337 kts 297°
2026-04-27 12:02 55.17310 82.02567 13996 ft 339 kts 297°
2026-04-27 12:02 55.18516 81.98997 14628 ft 342 kts 297°
2026-04-27 12:02 55.19725 81.95413 15286 ft 343 kts 297°
2026-04-27 12:03 55.20940 81.91807 15958 ft 344 kts 297°
2026-04-27 12:03 55.22156 81.88189 16595 ft 346 kts 297°
2026-04-27 12:03 55.23380 81.84545 17222 ft 348 kts 296°
2026-04-27 12:03 55.24611 81.80872 17837 ft 350 kts 296°
2026-04-27 12:04 55.25857 81.77144 18209 ft 360 kts 296°
2026-04-27 12:04 55.27133 81.73322 18601 ft 366 kts 296°
2026-04-27 12:04 55.28422 81.69457 19108 ft 368 kts 296°
2026-04-27 12:04 55.29716 81.65577 19656 ft 369 kts 296°
2026-04-27 12:05 55.31013 81.61679 20139 ft 371 kts 296°
2026-04-27 12:05 55.32321 81.57741 20617 ft 374 kts 296°
2026-04-27 12:05 55.33634 81.53783 21102 ft 376 kts 295°
2026-04-27 12:05 55.34951 81.49803 21581 ft 378 kts 295°
2026-04-27 12:06 55.36275 81.45797 22064 ft 380 kts 295°
2026-04-27 12:06 55.37607 81.41758 22520 ft 382 kts 295°
2026-04-27 12:06 55.38942 81.37703 22966 ft 385 kts 295°
2026-04-27 12:06 55.40285 81.33618 23408 ft 387 kts 295°
2026-04-27 12:07 55.41635 81.29508 23830 ft 389 kts 294°
2026-04-27 12:07 55.42989 81.25377 24180 ft 391 kts 294°
2026-04-27 12:07 55.44352 81.21212 24499 ft 394 kts 294°
2026-04-27 12:07 55.45720 81.17018 24824 ft 396 kts 294°
2026-04-27 12:08 55.46912 81.12657 25126 ft 394 kts 287°
2026-04-27 12:08 55.47711 81.08069 25440 ft 392 kts 279°
2026-04-27 12:08 55.48337 81.03390 25771 ft 393 kts 279°
2026-04-27 12:08 55.48967 80.98671 26068 ft 396 kts 279°
2026-04-27 12:09 55.49603 80.93945 26431 ft 396 kts 279°
2026-04-27 12:09 55.50241 80.89229 26910 ft 394 kts 279°
2026-04-27 12:09 55.50879 80.84545 27380 ft 393 kts 279°
2026-04-27 12:09 55.51516 80.79858 27770 ft 393 kts 279°
2026-04-27 12:10 55.52152 80.75172 28144 ft 393 kts 279°
2026-04-27 12:10 55.52787 80.70487 28557 ft 392 kts 279°
2026-04-27 12:10 55.53419 80.65810 28988 ft 391 kts 279°
2026-04-27 12:10 55.54049 80.61140 29376 ft 391 kts 279°
2026-04-27 12:11 55.54677 80.56461 29760 ft 391 kts 278°
2026-04-27 12:11 55.55302 80.51796 30156 ft 390 kts 278°
2026-04-27 12:11 55.55925 80.47127 30485 ft 390 kts 279°
2026-04-27 12:11 55.56545 80.42462 30757 ft 391 kts 279°
2026-04-27 12:12 55.57165 80.37784 31011 ft 392 kts 279°
2026-04-27 12:12 55.57784 80.33095 31292 ft 392 kts 279°
2026-04-27 12:12 55.58402 80.28408 31579 ft 391 kts 279°
2026-04-27 12:12 55.59017 80.23722 31838 ft 392 kts 279°
2026-04-27 12:13 55.59632 80.19025 32101 ft 392 kts 279°
2026-04-27 12:13 55.60246 80.14319 32365 ft 392 kts 279°
2026-04-27 12:13 55.60858 80.09618 32626 ft 392 kts 280°
2026-04-27 12:13 55.61468 80.04920 32867 ft 392 kts 280°
2026-04-27 12:14 55.62077 80.00209 33128 ft 392 kts 280°
2026-04-27 12:14 55.62718 79.95515 33361 ft 394 kts 284°
2026-04-27 12:14 55.63724 79.90972 33582 ft 398 kts 292°
2026-04-27 12:14 55.65035 79.86649 33858 ft 400 kts 298°
2026-04-27 12:15 55.66693 79.82655 34099 ft 404 kts 304°
2026-04-27 12:15 55.70321 79.74954 34200 ft 411 kts 306°
2026-04-27 12:16 55.74037 79.67131 34206 ft 418 kts 306°
2026-04-27 12:16 55.77788 79.59142 34206 ft 425 kts 305°
2026-04-27 12:17 55.81571 79.51016 34199 ft 428 kts 305°
2026-04-27 12:17 55.85362 79.42833 34194 ft 429 kts 305°
2026-04-27 12:18 55.89151 79.34621 34194 ft 429 kts 305°
2026-04-27 12:18 55.92930 79.26406 34189 ft 428 kts 305°
2026-04-27 12:19 55.96689 79.18207 34191 ft 426 kts 305°
2026-04-27 12:19 56.00428 79.10021 34190 ft 424 kts 305°
2026-04-27 12:20 56.04146 79.01856 34193 ft 422 kts 305°
2026-04-27 12:20 56.07842 78.93708 34194 ft 421 kts 305°
2026-04-27 12:21 56.11522 78.85569 34190 ft 420 kts 305°
2026-04-27 12:21 56.15186 78.77438 34187 ft 419 kts 305°
2026-04-27 12:22 56.18844 78.69293 34194 ft 419 kts 304°
2026-04-27 12:22 56.22494 78.61138 34188 ft 419 kts 304°
2026-04-27 12:23 56.26143 78.52958 34191 ft 420 kts 304°
2026-04-27 12:23 56.29800 78.44734 34193 ft 421 kts 304°
2026-04-27 12:24 56.33368 78.36380 34182 ft 419 kts 299°
2026-04-27 12:24 56.35879 78.26978 34200 ft 416 kts 289°
2026-04-27 12:25 56.38044 78.17289 34194 ft 417 kts 289°
2026-04-27 12:25 56.40228 78.07567 34189 ft 418 kts 290°
2026-04-27 12:26 56.42428 77.97826 34191 ft 419 kts 290°
2026-04-27 12:26 56.44626 77.88072 34189 ft 419 kts 290°
2026-04-27 12:27 56.46821 77.78293 34188 ft 420 kts 290°
2026-04-27 12:27 56.49005 77.68514 34187 ft 419 kts 290°
2026-04-27 12:28 56.51180 77.58726 34189 ft 419 kts 290°
2026-04-27 12:28 56.52981 77.50588 34190 ft 418 kts 289°
2026-04-27 12:29 56.55138 77.40802 34188 ft 418 kts 289°
2026-04-27 12:29 56.57257 77.31004 34190 ft 417 kts 289°
2026-04-27 12:30 56.59342 77.21185 34187 ft 417 kts 289°
2026-04-27 12:30 56.61416 77.11372 34187 ft 416 kts 289°
2026-04-27 12:31 56.63486 77.01556 34188 ft 416 kts 289°
2026-04-27 12:31 56.65548 76.91735 34192 ft 416 kts 289°
2026-04-27 12:32 56.67600 76.81913 34187 ft 416 kts 289°
2026-04-27 12:32 56.69645 76.72082 34188 ft 415 kts 289°
2026-04-27 12:33 56.71683 76.62238 34188 ft 416 kts 289°
2026-04-27 12:33 56.73712 76.52386 34190 ft 416 kts 289°
2026-04-27 12:34 56.75733 76.42525 34188 ft 416 kts 289°
2026-04-27 12:34 56.77747 76.32648 34185 ft 416 kts 289°
2026-04-27 12:35 56.79754 76.22759 34188 ft 416 kts 289°
2026-04-27 12:35 56.81753 76.12862 34188 ft 416 kts 289°
2026-04-27 12:36 56.83742 76.02959 34187 ft 416 kts 289°
2026-04-27 12:36 56.85724 75.93045 34188 ft 415 kts 288°
2026-04-27 12:37 56.87686 75.83184 34187 ft 415 kts 289°
2026-04-27 12:37 56.89651 75.73254 34188 ft 415 kts 288°
2026-04-27 12:38 56.91609 75.63314 34186 ft 415 kts 288°
2026-04-27 12:38 56.93557 75.53367 34183 ft 415 kts 288°
2026-04-27 12:39 56.95512 75.43336 34186 ft 415 kts 288°
2026-04-27 12:39 56.97431 75.33444 34187 ft 415 kts 288°
2026-04-27 12:40 56.99354 75.23476 34189 ft 415 kts 288°
2026-04-27 12:40 57.01269 75.13496 34189 ft 414 kts 288°
2026-04-27 12:41 57.03176 75.03511 34183 ft 414 kts 288°
2026-04-27 12:41 57.05072 74.93528 34186 ft 414 kts 288°
2026-04-27 12:42 57.06961 74.83532 34182 ft 414 kts 288°
2026-04-27 12:42 57.08838 74.73546 34182 ft 414 kts 288°
2026-04-27 12:43 57.10709 74.63539 34185 ft 413 kts 288°
2026-04-27 12:43 57.12568 74.53547 34187 ft 413 kts 288°
2026-04-27 12:44 57.14421 74.43530 34184 ft 413 kts 288°
2026-04-27 12:44 57.16262 74.33529 34182 ft 412 kts 288°
2026-04-27 12:45 57.18096 74.23508 34190 ft 412 kts 288°
2026-04-27 12:45 57.19921 74.13489 34184 ft 412 kts 288°
2026-04-27 12:46 57.21735 74.03470 34190 ft 412 kts 288°
2026-04-27 12:46 57.23543 73.93437 34189 ft 412 kts 288°
2026-04-27 12:47 57.25340 73.83405 34186 ft 412 kts 288°
2026-04-27 12:47 57.27132 73.73356 34190 ft 411 kts 288°
2026-04-27 12:48 57.28916 73.63307 34188 ft 411 kts 288°
2026-04-27 12:48 57.30703 73.53260 34186 ft 411 kts 288°
2026-04-27 12:49 57.32487 73.43205 34185 ft 411 kts 288°
2026-04-27 12:49 57.34264 73.33133 34189 ft 411 kts 288°
2026-04-27 12:50 57.36031 73.23056 34187 ft 411 kts 288°
2026-04-27 12:50 57.37787 73.12978 34184 ft 411 kts 288°
2026-04-27 12:51 57.39537 73.02883 34187 ft 411 kts 288°
2026-04-27 12:51 57.41264 72.92862 34186 ft 411 kts 288°
2026-04-27 12:52 57.42995 72.82763 34187 ft 411 kts 288°
2026-04-27 12:52 57.44718 72.72661 34180 ft 410 kts 288°
2026-04-27 12:53 57.47281 72.57513 34182 ft 410 kts 288°
2026-04-27 12:53 57.48979 72.47412 34181 ft 409 kts 288°
2026-04-27 12:54 57.50664 72.37327 34185 ft 408 kts 288°
2026-04-27 12:54 57.52341 72.27235 34180 ft 408 kts 288°
2026-04-27 12:55 57.54005 72.17164 34181 ft 407 kts 288°
2026-04-27 12:55 57.55659 72.07097 34178 ft 406 kts 288°
2026-04-27 12:56 57.57301 71.97039 34183 ft 405 kts 288°
2026-04-27 12:56 57.58932 71.86993 34181 ft 405 kts 288°
2026-04-27 12:57 57.60554 71.76948 34180 ft 404 kts 288°
2026-04-27 12:57 57.62164 71.66919 34174 ft 403 kts 288°
2026-04-27 12:58 57.63764 71.56892 34180 ft 402 kts 288°
2026-04-27 12:58 57.65351 71.46884 34176 ft 402 kts 288°
2026-04-27 12:59 57.66930 71.36877 34177 ft 401 kts 288°
2026-04-27 12:59 57.68498 71.26884 34177 ft 401 kts 288°
2026-04-27 13:00 57.70056 71.16894 34176 ft 400 kts 288°
2026-04-27 13:00 57.71671 71.06941 34174 ft 400 kts 288°
2026-04-27 13:01 57.73321 70.97014 34176 ft 399 kts 288°
2026-04-27 13:01 57.74959 70.87082 34175 ft 399 kts 288°
2026-04-27 13:02 57.76581 70.77149 34173 ft 399 kts 288°
2026-04-27 13:02 57.78191 70.67213 34173 ft 398 kts 288°
2026-04-27 13:03 57.79793 70.57270 34173 ft 398 kts 288°
2026-04-27 13:03 57.81384 70.47330 34167 ft 398 kts 288°
2026-04-27 13:04 57.82966 70.37396 34179 ft 397 kts 288°
2026-04-27 13:04 57.84538 70.27464 34186 ft 397 kts 288°
2026-04-27 13:05 57.86102 70.17530 34173 ft 396 kts 288°
2026-04-27 13:05 57.87644 70.07672 34179 ft 396 kts 288°
2026-04-27 13:06 57.89198 69.97682 34179 ft 395 kts 288°
2026-04-27 13:06 57.90722 69.87831 34170 ft 395 kts 288°
2026-04-27 13:07 57.92247 69.77913 34172 ft 395 kts 288°
2026-04-27 13:07 57.93773 69.67925 34167 ft 394 kts 288°
2026-04-27 13:08 57.95270 69.58073 34174 ft 394 kts 288°
2026-04-27 13:08 57.96771 69.48131 34169 ft 394 kts 288°
2026-04-27 13:09 57.98262 69.38198 34168 ft 394 kts 288°
2026-04-27 13:09 57.99745 69.28262 34172 ft 394 kts 288°
2026-04-27 13:10 58.01222 69.18318 34169 ft 394 kts 288°
2026-04-27 13:10 58.02689 69.08360 34158 ft 394 kts 288°
2026-04-27 13:11 58.04140 68.98397 34166 ft 394 kts 288°
2026-04-27 13:11 58.05582 68.88429 34161 ft 394 kts 288°
2026-04-27 13:12 58.06776 68.80134 34164 ft 394 kts 288°
2026-04-27 13:12 58.08206 68.70149 34163 ft 394 kts 288°
2026-04-27 13:13 58.09636 68.60100 34163 ft 393 kts 287°
2026-04-27 13:13 58.11040 68.50172 34162 ft 393 kts 288°
2026-04-27 13:14 58.12444 68.40184 34163 ft 393 kts 287°
2026-04-27 13:14 58.13842 68.30183 34162 ft 393 kts 287°
2026-04-27 13:15 58.15274 68.20214 34161 ft 392 kts 288°
2026-04-27 13:15 58.16758 68.10271 34157 ft 392 kts 288°
2026-04-27 13:16 58.18231 68.00327 34153 ft 392 kts 288°
2026-04-27 13:16 58.19687 67.90378 34157 ft 392 kts 288°
2026-04-27 13:17 58.21134 67.80422 34157 ft 392 kts 288°
2026-04-27 13:17 58.22574 67.70464 34152 ft 391 kts 288°
2026-04-27 13:18 58.24000 67.60503 34153 ft 391 kts 288°
2026-04-27 13:18 58.25413 67.50515 34149 ft 391 kts 287°
2026-04-27 13:19 58.26816 67.40538 34150 ft 391 kts 287°
2026-04-27 13:19 58.28213 67.30547 34151 ft 391 kts 287°
2026-04-27 13:20 58.29601 67.20557 34139 ft 391 kts 287°
2026-04-27 13:20 58.30984 67.10545 34132 ft 391 kts 287°
2026-04-27 13:21 58.32358 67.00535 34144 ft 391 kts 287°
2026-04-27 13:21 58.33724 66.90515 34143 ft 391 kts 287°
2026-04-27 13:22 58.35082 66.80490 34133 ft 391 kts 287°
2026-04-27 13:22 58.36431 66.70462 34140 ft 391 kts 287°
2026-04-27 13:23 58.37774 66.60419 34134 ft 391 kts 286°
2026-04-27 13:23 58.39108 66.50377 34131 ft 391 kts 286°
2026-04-27 13:24 58.40436 66.40314 34131 ft 391 kts 286°
2026-04-27 13:24 58.41757 66.30242 34129 ft 391 kts 286°
2026-04-27 13:25 58.43067 66.20176 34123 ft 391 kts 286°
2026-04-27 13:25 58.44372 66.10100 34117 ft 391 kts 286°
2026-04-27 13:26 58.45670 66.00012 34119 ft 391 kts 286°
2026-04-27 13:26 58.46961 65.89912 34115 ft 391 kts 285°
2026-04-27 13:27 58.48237 65.79864 34113 ft 392 kts 285°
2026-04-27 13:27 58.49522 65.69672 34110 ft 392 kts 285°
2026-04-27 13:28 58.50792 65.59530 34110 ft 392 kts 285°
2026-04-27 13:28 58.52054 65.49374 34110 ft 392 kts 285°
2026-04-27 13:29 58.53308 65.39217 34102 ft 393 kts 285°
2026-04-27 13:29 58.54554 65.29045 34103 ft 393 kts 285°
2026-04-27 13:30 58.55786 65.18922 34103 ft 393 kts 284°
2026-04-27 13:30 58.57026 65.08657 34095 ft 393 kts 284°
2026-04-27 13:31 58.58242 64.98521 34098 ft 393 kts 284°
2026-04-27 13:31 58.59459 64.88309 34094 ft 393 kts 284°
2026-04-27 13:32 58.60667 64.78094 34094 ft 393 kts 284°
2026-04-27 13:32 58.61863 64.67855 34087 ft 393 kts 284°
2026-04-27 13:33 58.63050 64.57617 34089 ft 393 kts 284°
2026-04-27 13:33 58.64230 64.47371 34084 ft 393 kts 283°
2026-04-27 13:34 58.65402 64.37119 34083 ft 393 kts 283°
2026-04-27 13:34 58.66567 64.26852 34078 ft 393 kts 283°
2026-04-27 13:35 58.67723 64.16578 34082 ft 393 kts 283°
2026-04-27 13:35 58.68872 64.06299 34077 ft 393 kts 283°
2026-04-27 13:36 58.70014 63.96007 34077 ft 394 kts 283°
2026-04-27 13:36 58.71148 63.85704 34070 ft 394 kts 282°
2026-04-27 13:37 58.72408 63.75455 34073 ft 394 kts 285°
2026-04-27 13:37 58.73808 63.65267 34069 ft 394 kts 285°
2026-04-27 13:38 58.75198 63.55059 34068 ft 394 kts 284°
2026-04-27 13:38 58.76562 63.44822 34065 ft 395 kts 284°
2026-04-27 13:39 58.77910 63.34567 34063 ft 395 kts 284°
2026-04-27 13:39 58.79250 63.24289 34058 ft 396 kts 284°
2026-04-27 13:40 58.80583 63.13984 34061 ft 396 kts 284°
2026-04-27 13:40 58.81910 63.03659 34057 ft 397 kts 283°
2026-04-27 13:41 58.83229 62.93318 34054 ft 397 kts 283°
2026-04-27 13:41 58.84542 62.82961 34044 ft 397 kts 283°
2026-04-27 13:42 58.85847 62.72590 34051 ft 398 kts 283°
2026-04-27 13:42 58.87144 62.62203 34043 ft 398 kts 283°
2026-04-27 13:43 58.88435 62.51800 34043 ft 398 kts 282°
2026-04-27 13:43 58.89717 62.41385 34044 ft 398 kts 282°
2026-04-27 13:44 58.90991 62.30965 34038 ft 398 kts 282°
2026-04-27 13:44 58.92256 62.20537 34035 ft 398 kts 282°
2026-04-27 13:45 58.93515 62.10090 34037 ft 398 kts 282°
2026-04-27 13:45 58.94765 61.99631 34027 ft 399 kts 282°
2026-04-27 13:46 58.96008 61.89165 34028 ft 399 kts 282°
2026-04-27 13:46 58.97240 61.78701 34030 ft 399 kts 281°
2026-04-27 13:47 58.98356 61.69174 34022 ft 399 kts 281°
2026-04-27 13:47 58.99558 61.58658 34017 ft 399 kts 280°
2026-04-27 13:48 59.00196 61.52329 34016 ft 399 kts 279°
2026-04-27 13:48 59.00790 61.46143 34016 ft 399 kts 279°
2026-04-27 13:49 59.01484 61.38822 34013 ft 400 kts 279°
2026-04-27 13:49 59.01932 61.34099 34011 ft 400 kts 279°
2026-04-27 13:50 59.02944 61.23478 34008 ft 400 kts 279°
2026-04-27 13:50 59.03956 61.12841 34004 ft 401 kts 278°
2026-04-27 13:51 59.04961 61.02199 34003 ft 401 kts 278°
2026-04-27 13:51 59.05959 60.91540 33997 ft 401 kts 278°
2026-04-27 13:52 59.06950 60.80859 33996 ft 401 kts 278°
2026-04-27 13:52 59.07932 60.70178 33991 ft 402 kts 278°
2026-04-27 13:53 59.09391 60.54105 33987 ft 402 kts 277°
2026-04-27 13:54 59.10353 60.43382 33985 ft 403 kts 277°
2026-04-27 13:54 59.11308 60.32633 33980 ft 403 kts 277°
2026-04-27 13:55 59.12101 60.23622 33982 ft 403 kts 277°
2026-04-27 13:55 59.13034 60.12929 33973 ft 404 kts 277°
2026-04-27 13:56 59.13970 60.02078 33966 ft 404 kts 277°
2026-04-27 13:56 59.14887 59.91354 33967 ft 404 kts 276°
2026-04-27 13:57 59.15802 59.80540 33964 ft 404 kts 276°
2026-04-27 13:57 59.16708 59.69720 33957 ft 405 kts 276°
2026-04-27 13:58 59.17605 59.58891 33958 ft 405 kts 276°
2026-04-27 13:58 59.18492 59.48063 33955 ft 405 kts 276°
2026-04-27 13:59 59.19374 59.37192 33961 ft 405 kts 276°
2026-04-27 13:59 59.20245 59.26333 33951 ft 405 kts 275°
2026-04-27 14:00 59.21107 59.15464 33950 ft 406 kts 275°
2026-04-27 14:00 59.21962 59.04576 33942 ft 406 kts 275°
2026-04-27 14:01 59.22807 58.93690 33946 ft 406 kts 275°
2026-04-27 14:01 59.23643 58.82788 33943 ft 406 kts 275°
2026-04-27 14:02 59.24471 58.71866 33935 ft 406 kts 274°
2026-04-27 14:02 59.25291 58.60939 33946 ft 407 kts 274°
2026-04-27 14:03 59.26101 58.49999 33926 ft 407 kts 274°
2026-04-27 14:03 59.26904 58.39038 33919 ft 407 kts 274°
2026-04-27 14:04 59.27698 58.28070 33915 ft 407 kts 274°
2026-04-27 14:04 59.28483 58.17100 33909 ft 408 kts 274°
2026-04-27 14:05 59.29259 58.06123 33916 ft 408 kts 273°
2026-04-27 14:05 59.30032 57.95118 33911 ft 408 kts 273°
2026-04-27 14:06 59.30801 57.84110 33900 ft 409 kts 273°
2026-04-27 14:06 59.31563 57.73082 33894 ft 409 kts 273°
2026-04-27 14:07 59.32315 57.62036 33890 ft 409 kts 273°
2026-04-27 14:07 59.33059 57.50981 33879 ft 410 kts 272°
2026-04-27 14:08 59.33794 57.39911 33878 ft 410 kts 272°
2026-04-27 14:08 59.34521 57.28820 33877 ft 411 kts 272°
2026-04-27 14:09 59.35240 57.17719 33873 ft 411 kts 272°
2026-04-27 14:09 59.35658 57.06623 33855 ft 405 kts 263°
2026-04-27 14:10 59.35309 56.95611 33859 ft 405 kts 262°
2026-04-27 14:10 59.34939 56.84602 33853 ft 405 kts 262°
2026-04-27 14:11 59.34577 56.73570 33849 ft 406 kts 262°
2026-04-27 14:11 59.34218 56.62524 33844 ft 406 kts 262°
2026-04-27 14:12 59.33852 56.51462 33840 ft 407 kts 262°
2026-04-27 14:12 59.33478 56.40393 33839 ft 408 kts 262°
2026-04-27 14:13 59.33093 56.29308 33833 ft 408 kts 262°
2026-04-27 14:13 59.32697 56.18205 33827 ft 409 kts 261°
2026-04-27 14:14 59.32292 56.07075 33823 ft 410 kts 261°
2026-04-27 14:14 59.31876 55.95942 33820 ft 410 kts 261°
2026-04-27 14:15 59.31451 55.84800 33818 ft 411 kts 261°
2026-04-27 14:15 59.31016 55.73652 33812 ft 411 kts 261°
2026-04-27 14:16 59.30571 55.62502 33810 ft 411 kts 261°
2026-04-27 14:16 59.30116 55.51352 33805 ft 411 kts 261°
2026-04-27 14:17 59.29652 55.40196 33801 ft 411 kts 260°
2026-04-27 14:17 59.29177 55.29032 33795 ft 412 kts 260°
2026-04-27 14:18 59.28693 55.17873 33793 ft 412 kts 260°
2026-04-27 14:18 59.28200 55.06710 33783 ft 412 kts 260°
2026-04-27 14:19 59.27696 54.95549 33783 ft 412 kts 259°
2026-04-27 14:19 59.27183 54.84381 33782 ft 412 kts 259°
2026-04-27 14:20 59.26661 54.73228 33771 ft 412 kts 259°
2026-04-27 14:20 59.26128 54.62070 33762 ft 412 kts 259°
2026-04-27 14:21 59.25586 54.50905 33761 ft 413 kts 259°
2026-04-27 14:21 59.25034 54.39740 33754 ft 413 kts 259°
2026-04-27 14:22 59.24472 54.28570 33743 ft 413 kts 259°
2026-04-27 14:22 59.23904 54.17471 33747 ft 413 kts 258°
2026-04-27 14:23 59.23321 54.06234 33743 ft 413 kts 258°
2026-04-27 14:23 59.22735 53.95139 33740 ft 413 kts 258°
2026-04-27 14:24 59.22130 53.83956 33726 ft 414 kts 258°
2026-04-27 14:24 59.21516 53.72774 33719 ft 414 kts 258°
2026-04-27 14:25 59.20894 53.61587 33715 ft 415 kts 258°
2026-04-27 14:25 59.20263 53.50393 33706 ft 415 kts 258°
2026-04-27 14:26 59.19629 53.39191 33701 ft 416 kts 258°
2026-04-27 14:26 59.18995 53.27974 33698 ft 416 kts 257°
2026-04-27 14:27 59.18352 53.16757 33692 ft 416 kts 257°
2026-04-27 14:27 59.17698 53.05528 33680 ft 417 kts 257°
2026-04-27 14:28 59.17034 52.94311 33674 ft 417 kts 257°
2026-04-27 14:28 59.16360 52.83093 33674 ft 417 kts 257°
2026-04-27 14:29 59.15674 52.71859 33665 ft 417 kts 257°
2026-04-27 14:29 59.14980 52.60633 33648 ft 418 kts 257°
2026-04-27 14:30 59.14275 52.49399 33645 ft 418 kts 256°
2026-04-27 14:30 59.13560 52.38170 33638 ft 418 kts 256°
2026-04-27 14:31 59.12835 52.26922 33632 ft 419 kts 256°
2026-04-27 14:31 59.12102 52.15684 33626 ft 419 kts 256°
2026-04-27 14:32 59.11356 52.04429 33611 ft 419 kts 256°
2026-04-27 14:32 59.10596 51.93171 33606 ft 420 kts 256°
2026-04-27 14:33 59.09826 51.81906 33598 ft 420 kts 255°
2026-04-27 14:33 59.09047 51.70626 33592 ft 421 kts 255°
2026-04-27 14:34 59.08256 51.59323 33583 ft 422 kts 255°
2026-04-27 14:34 59.07455 51.48009 33577 ft 423 kts 255°
2026-04-27 14:35 59.06642 51.36676 33569 ft 424 kts 255°
2026-04-27 14:35 59.05818 51.25334 33565 ft 424 kts 255°
2026-04-27 14:36 59.05125 51.15893 33554 ft 425 kts 255°
2026-04-27 14:36 59.04281 51.04515 33555 ft 426 kts 255°
2026-04-27 14:37 59.03422 50.93120 33532 ft 427 kts 254°
2026-04-27 14:37 59.02545 50.81717 33526 ft 428 kts 254°
2026-04-27 14:38 59.01660 50.70300 33515 ft 428 kts 254°
2026-04-27 14:38 59.00772 50.58859 33506 ft 429 kts 254°
2026-04-27 14:39 58.99895 50.47399 33499 ft 430 kts 254°
2026-04-27 14:39 58.99006 50.35926 33490 ft 430 kts 254°
2026-04-27 14:40 58.98086 50.24460 33486 ft 430 kts 253°
2026-04-27 14:40 58.97135 50.13001 33476 ft 431 kts 253°
2026-04-27 14:41 58.96175 50.01531 33467 ft 431 kts 253°
2026-04-27 14:41 58.95208 49.90058 33464 ft 432 kts 253°
2026-04-27 14:42 58.94231 49.78578 33448 ft 432 kts 253°
2026-04-27 14:42 58.93242 49.67080 33464 ft 433 kts 253°
2026-04-27 14:43 58.92241 49.55564 33460 ft 434 kts 252°
2026-04-27 14:43 58.91243 49.44019 33456 ft 436 kts 253°
2026-04-27 14:44 58.90245 49.32451 33458 ft 436 kts 252°
2026-04-27 14:44 58.89234 49.20869 33458 ft 437 kts 252°
2026-04-27 14:45 58.88209 49.09286 33463 ft 438 kts 252°
2026-04-27 14:45 58.87123 48.97700 33466 ft 438 kts 252°
2026-04-27 14:46 58.86007 48.86109 33459 ft 439 kts 251°
2026-04-27 14:46 58.84886 48.74502 33463 ft 440 kts 252°
2026-04-27 14:47 58.83757 48.62880 33473 ft 441 kts 251°
2026-04-27 14:47 58.82615 48.51218 33467 ft 443 kts 251°
2026-04-27 14:48 58.81469 48.39527 33464 ft 444 kts 252°
2026-04-27 14:48 58.79808 48.21894 33462 ft 446 kts 252°
2026-04-27 14:49 58.78688 48.10104 33449 ft 447 kts 252°
2026-04-27 14:49 58.77551 47.98299 33450 ft 448 kts 252°
2026-04-27 14:50 58.76400 47.86496 33443 ft 449 kts 252°
2026-04-27 14:50 58.75234 47.74663 33439 ft 450 kts 252°
2026-04-27 14:51 58.74056 47.62830 33432 ft 450 kts 252°
2026-04-27 14:51 58.73068 47.52996 33432 ft 451 kts 252°
2026-04-27 14:52 58.71664 47.39146 33421 ft 451 kts 252°
2026-04-27 14:52 58.70450 47.27300 33428 ft 452 kts 252°
2026-04-27 14:53 58.69223 47.15442 33420 ft 452 kts 252°
2026-04-27 14:53 58.67985 47.03593 33413 ft 453 kts 252°
2026-04-27 14:54 58.66735 46.91731 33403 ft 453 kts 252°
2026-04-27 14:54 58.65472 46.79870 33398 ft 453 kts 252°
2026-04-27 14:55 58.64200 46.68028 33403 ft 453 kts 252°
2026-04-27 14:55 58.62917 46.56196 33397 ft 452 kts 252°
2026-04-27 14:56 58.61626 46.44395 33399 ft 452 kts 252°
2026-04-27 14:56 58.60323 46.32604 33385 ft 452 kts 252°
2026-04-27 14:57 58.59011 46.20832 33382 ft 451 kts 252°
2026-04-27 14:57 58.57692 46.09090 33376 ft 451 kts 252°
2026-04-27 14:58 58.56362 45.97360 33370 ft 450 kts 252°
2026-04-27 14:58 58.55023 45.85640 33359 ft 450 kts 252°
2026-04-27 14:59 58.53667 45.73945 33357 ft 450 kts 252°
2026-04-27 14:59 58.52150 45.62348 33354 ft 449 kts 251°
2026-04-27 15:00 58.50563 45.50806 33347 ft 449 kts 251°
2026-04-27 15:00 58.48976 45.39252 33336 ft 450 kts 251°
2026-04-27 15:01 58.47392 45.27691 33332 ft 450 kts 251°
2026-04-27 15:01 58.45802 45.16121 33326 ft 451 kts 251°
2026-04-27 15:02 58.44200 45.04546 33317 ft 451 kts 251°
2026-04-27 15:02 58.42583 44.92955 33312 ft 452 kts 251°
2026-04-27 15:03 58.40967 44.81459 33311 ft 452 kts 251°
2026-04-27 15:03 58.39327 44.69873 33294 ft 453 kts 251°
2026-04-27 15:04 58.37673 44.58274 33295 ft 453 kts 251°
2026-04-27 15:04 58.36010 44.46695 33300 ft 454 kts 251°
2026-04-27 15:05 58.34330 44.35085 33282 ft 455 kts 251°
2026-04-27 15:05 58.32640 44.23487 33284 ft 455 kts 251°
2026-04-27 15:06 58.30939 44.11896 33272 ft 455 kts 251°
2026-04-27 15:06 58.29224 44.00297 33271 ft 456 kts 251°
2026-04-27 15:07 58.27500 43.88716 33259 ft 456 kts 251°
2026-04-27 15:07 58.25763 43.77133 33260 ft 456 kts 251°
2026-04-27 15:08 58.24015 43.65550 33251 ft 456 kts 251°
2026-04-27 15:08 58.22256 43.53978 33241 ft 456 kts 251°
2026-04-27 15:09 58.20484 43.42407 33235 ft 456 kts 251°
2026-04-27 15:09 58.18705 43.30863 33228 ft 456 kts 251°
2026-04-27 15:10 58.16916 43.19330 33223 ft 456 kts 251°
2026-04-27 15:10 58.15116 43.07814 33217 ft 456 kts 251°
2026-04-27 15:11 58.13306 42.96308 33208 ft 456 kts 251°
2026-04-27 15:11 58.11486 42.84814 33194 ft 456 kts 251°
2026-04-27 15:12 58.09655 42.73335 33193 ft 456 kts 250°
2026-04-27 15:12 58.07814 42.61866 33187 ft 456 kts 251°
2026-04-27 15:13 58.05960 42.50384 33171 ft 457 kts 251°
2026-04-27 15:13 58.04097 42.38926 33160 ft 457 kts 251°
2026-04-27 15:14 58.02222 42.27481 33147 ft 457 kts 250°
2026-04-27 15:14 58.00339 42.16045 33134 ft 456 kts 250°
2026-04-27 15:15 57.98445 42.04623 33138 ft 457 kts 250°
2026-04-27 15:15 57.96540 41.93210 33119 ft 457 kts 250°
2026-04-27 15:16 57.94626 41.81812 33108 ft 456 kts 250°
2026-04-27 15:16 57.92703 41.70432 33094 ft 456 kts 250°
2026-04-27 15:17 57.91098 41.60976 33092 ft 456 kts 250°
2026-04-27 15:17 57.89162 41.49631 33088 ft 456 kts 250°
2026-04-27 15:18 57.86911 41.36454 33072 ft 456 kts 250°
2026-04-27 15:18 57.85282 41.26958 33065 ft 456 kts 250°
2026-04-27 15:19 57.83328 41.15631 33052 ft 456 kts 250°
2026-04-27 15:19 57.81364 41.04327 33048 ft 456 kts 250°
2026-04-27 15:20 57.79391 40.93043 33046 ft 455 kts 250°
2026-04-27 15:20 57.77407 40.81763 33040 ft 455 kts 250°
2026-04-27 15:21 57.75416 40.70514 33033 ft 455 kts 250°
2026-04-27 15:21 57.73427 40.59340 33029 ft 455 kts 250°
2026-04-27 15:22 57.71415 40.48108 33025 ft 455 kts 250°
2026-04-27 15:22 57.69396 40.36904 33024 ft 455 kts 250°
2026-04-27 15:23 57.67368 40.25718 33024 ft 455 kts 250°
2026-04-27 15:23 57.65330 40.14537 33031 ft 455 kts 250°
2026-04-27 15:24 57.63282 40.03363 33023 ft 455 kts 250°
2026-04-27 15:24 57.61224 39.92200 33021 ft 455 kts 250°
2026-04-27 15:25 57.59161 39.81051 33019 ft 455 kts 250°
2026-04-27 15:25 57.57089 39.69905 33025 ft 455 kts 250°
2026-04-27 15:26 57.55006 39.58770 33014 ft 455 kts 250°
2026-04-27 15:26 57.52917 39.47660 33018 ft 455 kts 250°
2026-04-27 15:27 57.50818 39.36560 33024 ft 455 kts 250°
2026-04-27 15:27 57.48709 39.25474 33028 ft 454 kts 250°
2026-04-27 15:28 57.46588 39.14421 33030 ft 454 kts 250°
2026-04-27 15:28 57.44456 39.03384 33037 ft 454 kts 250°
2026-04-27 15:29 57.42317 38.92362 33042 ft 454 kts 250°
2026-04-27 15:29 57.40171 38.81357 33050 ft 453 kts 250°
2026-04-27 15:30 57.38017 38.70374 33061 ft 453 kts 250°
2026-04-27 15:30 57.35856 38.59415 33062 ft 453 kts 250°
2026-04-27 15:31 57.33682 38.48451 33071 ft 453 kts 250°
2026-04-27 15:31 57.31504 38.37516 33083 ft 453 kts 250°
2026-04-27 15:32 57.29314 38.26597 33091 ft 453 kts 250°
2026-04-27 15:32 57.27120 38.15702 33097 ft 453 kts 250°
2026-04-27 15:33 57.24915 38.04801 33102 ft 453 kts 250°
2026-04-27 15:33 57.22703 37.93924 33110 ft 453 kts 250°
2026-04-27 15:34 57.20482 37.83056 33119 ft 453 kts 250°
2026-04-27 15:34 57.18251 37.72199 33123 ft 453 kts 250°
2026-04-27 15:35 57.15965 37.61393 33134 ft 453 kts 248°
2026-04-27 15:35 57.13329 37.50837 33152 ft 453 kts 245°
2026-04-27 15:36 57.10611 37.40373 33161 ft 453 kts 246°
2026-04-27 15:36 57.07917 37.29882 33172 ft 453 kts 246°
2026-04-27 15:37 57.05258 37.19481 33186 ft 453 kts 246°
2026-04-27 15:37 57.02577 37.09014 33200 ft 452 kts 246°
2026-04-27 15:38 56.99887 36.98575 33213 ft 452 kts 246°
2026-04-27 15:38 56.97194 36.88164 33226 ft 452 kts 246°
2026-04-27 15:39 56.94484 36.77775 33243 ft 452 kts 246°
2026-04-27 15:39 56.91765 36.67416 33260 ft 451 kts 246°
2026-04-27 15:40 56.89040 36.57073 33270 ft 451 kts 246°
2026-04-27 15:40 56.86302 36.46741 33290 ft 451 kts 246°
2026-04-27 15:41 56.83563 36.36433 33301 ft 451 kts 246°
2026-04-27 15:41 56.80812 36.26139 33325 ft 451 kts 246°
2026-04-27 15:42 56.78038 36.15870 33332 ft 451 kts 246°
2026-04-27 15:42 56.75268 36.05615 33344 ft 451 kts 246°
2026-04-27 15:43 56.72496 35.95365 33361 ft 451 kts 246°
2026-04-27 15:43 56.69740 35.85088 33386 ft 451 kts 246°
2026-04-27 15:44 56.66970 35.74841 33403 ft 452 kts 246°
2026-04-27 15:44 56.64160 35.64630 33413 ft 452 kts 246°
2026-04-27 15:45 56.61361 35.54417 33434 ft 452 kts 246°
2026-04-27 15:45 56.58553 35.44200 33454 ft 452 kts 246°
2026-04-27 15:46 56.55734 35.34016 33465 ft 452 kts 246°
2026-04-27 15:46 56.52893 35.23837 33467 ft 452 kts 246°
2026-04-27 15:47 56.50047 35.13679 33496 ft 452 kts 246°
2026-04-27 15:47 56.47201 35.03533 33504 ft 452 kts 246°
2026-04-27 15:48 56.44339 34.93403 33523 ft 452 kts 245°
2026-04-27 15:49 56.40023 34.78233 33539 ft 453 kts 245°
2026-04-27 15:49 56.37138 34.68138 33552 ft 453 kts 245°
2026-04-27 15:50 56.34245 34.58045 33557 ft 453 kts 246°
2026-04-27 15:50 56.31342 34.47970 33569 ft 453 kts 245°
2026-04-27 15:51 56.28425 34.37901 33578 ft 454 kts 245°
2026-04-27 15:51 56.25503 34.27841 33594 ft 453 kts 245°
2026-04-27 15:52 56.22574 34.17796 33598 ft 454 kts 245°
2026-04-27 15:52 56.19637 34.07766 33610 ft 454 kts 245°
2026-04-27 15:53 56.16687 33.97743 33627 ft 454 kts 245°
2026-04-27 15:53 56.13732 33.87735 33634 ft 454 kts 245°
2026-04-27 15:54 56.10768 33.77738 33641 ft 454 kts 245°
2026-04-27 15:54 56.07797 33.67763 33648 ft 454 kts 245°
2026-04-27 15:55 56.04822 33.57822 33659 ft 453 kts 245°
2026-04-27 15:55 56.01838 33.47893 33671 ft 453 kts 244°
2026-04-27 15:56 55.98850 33.37990 33684 ft 452 kts 245°
2026-04-27 15:56 55.95857 33.28115 33687 ft 452 kts 244°
2026-04-27 15:57 55.92863 33.18266 33698 ft 452 kts 244°
2026-04-27 15:57 55.89861 33.08433 33704 ft 451 kts 244°
2026-04-27 15:58 55.86850 32.98617 33710 ft 451 kts 244°
2026-04-27 15:58 55.84567 32.88346 33717 ft 445 kts 259°
2026-04-27 15:59 55.83445 32.79424 33719 ft 445 kts 261°
2026-04-27 15:59 55.82123 32.68673 33718 ft 445 kts 260°
2026-04-27 16:00 55.80759 32.57938 33726 ft 445 kts 260°
2026-04-27 16:00 55.79132 32.45461 33726 ft 446 kts 259°
2026-04-27 16:01 55.77946 32.36479 33726 ft 446 kts 259°
2026-04-27 16:01 55.76520 32.25745 33726 ft 446 kts 259°
2026-04-27 16:02 55.75087 32.15032 33736 ft 446 kts 259°
2026-04-27 16:02 55.73643 32.04309 33740 ft 446 kts 259°
2026-04-27 16:03 55.72202 31.93686 33743 ft 446 kts 259°
2026-04-27 16:03 55.70734 31.82940 33742 ft 445 kts 259°
2026-04-27 16:04 55.69278 31.72352 33738 ft 444 kts 259°
2026-04-27 16:04 55.67804 31.61720 33752 ft 444 kts 259°
2026-04-27 16:05 55.66323 31.51105 33757 ft 443 kts 259°
2026-04-27 16:05 55.64837 31.40523 33754 ft 442 kts 259°
2026-04-27 16:06 55.63344 31.29965 33762 ft 442 kts 259°
2026-04-27 16:06 55.61845 31.19442 33771 ft 441 kts 259°
2026-04-27 16:07 55.60341 31.08939 33772 ft 440 kts 259°
2026-04-27 16:07 55.58830 30.98455 33770 ft 440 kts 259°
2026-04-27 16:08 55.57276 30.88000 33777 ft 440 kts 258°
2026-04-27 16:08 55.55652 30.77587 33780 ft 440 kts 258°
2026-04-27 16:09 55.54023 30.67164 33790 ft 440 kts 258°
2026-04-27 16:09 55.51579 30.51541 33792 ft 441 kts 258°
2026-04-27 16:10 55.48522 30.42106 33797 ft 455 kts 229°
2026-04-27 16:10 55.43188 30.35913 33773 ft 466 kts 211°
2026-04-27 16:11 55.40289 30.33298 33498 ft 470 kts 211°
2026-04-27 16:11 55.34484 30.28094 32575 ft 467 kts 211°
2026-04-27 16:12 55.28751 30.22859 31577 ft 463 kts 212°
2026-04-27 16:12 55.25903 30.20233 31089 ft 461 kts 212°
2026-04-27 16:12 55.20245 30.15006 30143 ft 460 kts 212°
2026-04-27 16:13 55.17406 30.12385 29626 ft 464 kts 212°
2026-04-27 16:13 55.11662 30.07099 28497 ft 466 kts 212°
2026-04-27 16:13 55.08787 30.04466 27928 ft 465 kts 211°
2026-04-27 16:14 55.03080 29.99253 26857 ft 462 kts 211°
2026-04-27 16:14 54.97390 29.94071 25820 ft 460 kts 211°
2026-04-27 16:15 54.91729 29.88928 24824 ft 458 kts 211°
2026-04-27 16:15 54.86090 29.83823 23867 ft 453 kts 211°
2026-04-27 16:16 54.80667 29.78935 22888 ft 426 kts 211°
2026-04-27 16:16 54.75558 29.74336 21877 ft 403 kts 211°
2026-04-27 16:17 54.70719 29.69997 21000 ft 382 kts 211°
2026-04-27 16:17 54.66096 29.65882 20143 ft 366 kts 211°
2026-04-27 16:18 54.61648 29.61930 19303 ft 354 kts 211°
2026-04-27 16:18 54.57313 29.58080 18516 ft 348 kts 211°
2026-04-27 16:19 54.55171 29.56181 18113 ft 345 kts 211°
2026-04-27 16:19 54.53038 29.54293 17712 ft 344 kts 211°
2026-04-27 16:20 54.46632 29.48635 16561 ft 346 kts 211°
2026-04-27 16:20 54.44491 29.46749 16177 ft 346 kts 211°
2026-04-27 16:20 54.40234 29.43007 15468 ft 341 kts 211°
2026-04-27 16:21 54.38137 29.41166 15127 ft 338 kts 211°
2026-04-27 16:21 54.31936 29.35738 14123 ft 330 kts 211°
2026-04-27 16:22 54.29896 29.33954 13801 ft 328 kts 211°
2026-04-27 16:22 54.25846 29.30418 13071 ft 325 kts 211°
2026-04-27 16:22 54.23839 29.28667 12720 ft 324 kts 211°
2026-04-27 16:23 54.21838 29.26923 12385 ft 322 kts 211°
2026-04-27 16:23 54.17869 29.23469 11735 ft 317 kts 211°
2026-04-27 16:23 54.15924 29.21783 11406 ft 310 kts 212°
2026-04-27 16:24 54.14067 29.20031 11094 ft 298 kts 224°
2026-04-27 16:24 54.11876 29.14542 10533 ft 275 kts 251°
2026-04-27 16:25 54.10302 29.08654 10050 ft 270 kts 252°
2026-04-27 16:25 54.08739 29.02815 9613 ft 272 kts 251°
2026-04-27 16:26 54.07144 28.96919 9149 ft 276 kts 251°
2026-04-27 16:26 54.05532 28.91023 8669 ft 270 kts 251°
2026-04-27 16:27 54.03970 28.85330 8208 ft 263 kts 251°
2026-04-27 16:27 54.01658 28.76918 7532 ft 258 kts 251°
2026-04-27 16:28 54.00162 28.71509 7090 ft 248 kts 251°
2026-04-27 16:28 53.98695 28.66206 6688 ft 248 kts 251°
2026-04-27 16:29 53.96496 28.58279 6158 ft 238 kts 251°
2026-04-27 16:30 53.96042 28.56645 6068 ft 232 kts 252°
2026-04-27 16:30 53.94706 28.51842 5987 ft 221 kts 252°
2026-04-27 16:31 53.92680 28.44656 5787 ft 238 kts 245°
2026-04-27 16:31 53.90529 28.40296 5298 ft 239 kts 235°
2026-04-27 16:32 53.88133 28.36511 4915 ft 246 kts 207°
2026-04-27 16:32 53.86418 28.36174 4738 ft 257 kts 170°
2026-04-27 16:33 53.83510 28.39629 4415 ft 261 kts 136°
2026-04-27 16:33 53.82157 28.41695 4220 ft 263 kts 137°
2026-04-27 16:33 53.80794 28.43740 4051 ft 261 kts 137°
2026-04-27 16:33 53.79464 28.45728 3918 ft 257 kts 138°
2026-04-27 16:34 53.78125 28.47710 3824 ft 255 kts 138°
2026-04-27 16:34 53.76784 28.49686 3737 ft 257 kts 138°
2026-04-27 16:34 53.75434 28.51670 3643 ft 256 kts 138°
2026-04-27 16:34 53.74109 28.53617 3538 ft 249 kts 138°
2026-04-27 16:35 53.72814 28.55516 3430 ft 243 kts 139°
2026-04-27 16:35 53.71379 28.56850 3294 ft 232 kts 173°
2026-04-27 16:35 53.68527 28.55477 3184 ft 210 kts 229°
2026-04-27 16:36 53.67519 28.53698 3090 ft 211 kts 237°
2026-04-27 16:36 53.66569 28.51824 3010 ft 209 kts 237°
2026-04-27 16:36 53.65636 28.49986 2993 ft 204 kts 237°
2026-04-27 16:36 53.64715 28.48183 2992 ft 202 kts 237°
2026-04-27 16:37 53.63797 28.46391 3000 ft 203 kts 237°
2026-04-27 16:37 53.63166 28.44366 2978 ft 189 kts 272°
2026-04-27 16:37 53.63552 28.42405 2997 ft 178 kts 317°
2026-04-27 16:37 53.64604 28.41310 3011 ft 180 kts 328°
2026-04-27 16:38 53.65609 28.40103 2997 ft 175 kts 322°
2026-04-27 16:38 53.66552 28.38875 2985 ft 169 kts 321°
2026-04-27 16:38 53.67451 28.37634 2984 ft 165 kts 320°
2026-04-27 16:38 53.68322 28.36383 2995 ft 164 kts 320°
2026-04-27 16:39 53.69183 28.35121 2997 ft 164 kts 319°
2026-04-27 16:39 53.70039 28.33855 2998 ft 164 kts 319°
2026-04-27 16:39 53.70897 28.32578 2998 ft 165 kts 319°
2026-04-27 16:39 53.71757 28.31295 2994 ft 164 kts 319°
2026-04-27 16:40 53.72584 28.30061 2984 ft 154 kts 319°
2026-04-27 16:40 53.73117 28.29263 2997 ft 149 kts 319°
2026-04-27 16:40 53.74123 28.27763 2989 ft 144 kts 319°
2026-04-27 16:40 53.74858 28.26668 2980 ft 136 kts 320°
2026-04-27 16:41 53.75558 28.25622 3001 ft 133 kts 319°
2026-04-27 16:41 53.76213 28.24642 3038 ft 121 kts 320°
2026-04-27 16:41 53.76837 28.23712 3005 ft 117 kts 320°
2026-04-27 16:41 53.77456 28.22789 2998 ft 119 kts 319°
2026-04-27 16:42 53.78075 28.21866 2998 ft 118 kts 319°
2026-04-27 16:42 53.78492 28.21244 2998 ft 118 kts 319°
2026-04-27 16:42 53.79104 28.20331 2992 ft 119 kts 319°
2026-04-27 16:42 53.79731 28.19395 2989 ft 119 kts 319°
2026-04-27 16:43 53.80353 28.18468 2895 ft 120 kts 319°
2026-04-27 16:43 53.80976 28.17540 2733 ft 119 kts 319°
2026-04-27 16:43 53.81594 28.16620 2568 ft 118 kts 319°
2026-04-27 16:43 53.82210 28.15700 2405 ft 118 kts 319°
2026-04-27 16:44 53.82826 28.14783 2244 ft 118 kts 319°
2026-04-27 16:44 53.83445 28.13861 2073 ft 119 kts 319°
2026-04-27 16:44 53.84064 28.12938 1908 ft 118 kts 319°
2026-04-27 16:44 53.84670 28.12037 1730 ft 117 kts 319°
2026-04-27 16:45 53.85300 28.11100 1522 ft 126 kts 319°
2026-04-27 16:45 53.85962 28.10111 1318 ft 127 kts 320°
2026-04-27 16:45 53.86628 28.09109 1129 ft 129 kts 321°
2026-04-27 16:45 53.87323 28.08079 920 ft 134 kts 320°
2026-04-27 16:46 53.88022 28.07056 715 ft 133 kts 320°
2026-04-27 16:46 53.88691 28.06056 666 ft 118 kts 319°
2026-04-27 16:46 53.89233 28.05253 665 ft 86 kts 318°
2026-04-27 16:46 53.89593 28.04716 664 ft 41 kts 319°
2026-04-27 16:47 53.89699 28.04481 665 ft 25 kts 297°
2026-04-27 16:47 53.89750 28.04281 667 ft 11 kts 286°
2026-04-27 16:47 53.89736 28.04183 667 ft 4 kts 220°
2026-04-27 16:47 53.89708 28.04167 668 ft 4 kts 194°
2026-04-27 16:48 53.89678 28.04190 668 ft 6 kts 137°
2026-04-27 16:48 53.89639 28.04250 668 ft 9 kts 137°
2026-04-27 16:48 53.89583 28.04330 668 ft 12 kts 137°
2026-04-27 16:49 53.89471 28.04496 668 ft 10 kts 139°
2026-04-27 16:49 53.89428 28.04561 668 ft 7 kts 139°
2026-04-27 16:49 53.89385 28.04624 668 ft 10 kts 139°
2026-04-27 16:49 53.89375 28.04638 668 ft 2 kts 139°
2026-04-27 16:50 53.89370 28.04646 668 ft 0 kts 139°
2026-04-27 16:50 53.89366 28.04651 668 ft 2 kts 139°
2026-04-27 16:51 53.89345 28.04675 668 ft 5 kts 161°
2026-04-27 16:51 53.89318 28.04647 668 ft 5 kts 242°
2026-04-27 16:51 53.89291 28.04604 668 ft 3 kts 195°
2026-04-27 16:51 53.89261 28.04616 668 ft 6 kts 154°
2026-04-27 16:52 53.89218 28.04654 668 ft 8 kts 172°
2026-04-27 16:52 53.89193 28.04636 667 ft 5 kts 214°
2026-04-27 16:52 53.89166 28.04584 668 ft 7 kts 229°
2026-04-27 16:52 53.89127 28.04507 668 ft 10 kts 228°
2026-04-27 16:53 53.89074 28.04405 668 ft 12 kts 231°
2026-04-27 16:53 53.89015 28.04290 668 ft 13 kts 229°
2026-04-27 16:53 53.88956 28.04175 668 ft 13 kts 229°
2026-04-27 16:53 53.88917 28.04099 668 ft 7 kts 229°
2026-04-27 16:54 53.88884 28.04036 668 ft 7 kts 229°
2026-04-27 16:54 53.88871 28.03965 668 ft 7 kts 293°
2026-04-27 16:54 53.88895 28.03890 668 ft 7 kts 301°
2026-04-27 16:54 53.88919 28.03820 667 ft 0 kts 299°
2026-04-27 16:55 53.88920 28.03817 667 ft 1 kts 299°
2026-04-27 16:55 53.88922 28.03800 668 ft 3 kts 278°
2026-04-27 16:55 53.88922 28.03759 668 ft 4 kts 262°
2026-04-27 16:55 53.88904 28.03710 667 ft 6 kts 223°
2026-04-27 16:56 53.88871 28.03660 668 ft 7 kts 222°
2026-04-27 16:56 53.88838 28.03589 668 ft 8 kts 250°
2026-04-27 16:56 53.88855 28.03535 668 ft 5 kts 330°
2026-04-27 16:56 53.88866 28.03525 668 ft 1 kts 329°
2026-04-27 16:57 53.88874 28.03518 668 ft 2 kts 330°
2026-04-27 16:57 53.88878 28.03513 668 ft 1 kts 330°
2026-04-27 16:57 53.88882 28.03510 668 ft 0 kts 330°
2026-04-27 16:57 53.88882 28.03509 668 ft 0 kts 330°
2026-04-27 17:08 53.88882 28.03510 669 ft 0 kts 330°